This demonstration page uses our WeatherBlox Daily Observations layout. Learn more.

Left ArrowRight Arrow

Hourly Observations for April 13, 2019

Temp ( °F °C ) Dew Point ( °F °C ) Humidity (%) Winds ( mph kmh ) Pressure ( in mb ) Visibility ( mi km ) Precip ( " mm )
12:24 am 00:24 Cloudy with Nearby Thunderstorms 52 11.1 47 8.3 83 83 NNE 25 41 29.74 1007 4 6 0.14 3.56
12:42 am 00:42 Mostly Clear with Thunderstorms 51 10.6 47 8.3 86 86 N 20 31 29.78 1008 N/A 0.25 6.35
12:53 am 00:53 Mostly Clear with Strong Thunderstorms 50 10 46 7.8 86 86 N 16 26 29.71 1006 3 5 0.47 11.94
1:20 am 01:20 Cloudy with Nearby Thunderstorms 50 10 47 8.3 89 89 NE 21 33 29.76 1008 7 11 0.11 2.79
1:31 am 01:31 Cloudy with Light Rain 50 10 47 8.3 89 89 NE 21 33 29.76 1008 9 14 0.12 3.05
1:53 am 01:53 Cloudy with Light Rain 50 10 47 8.3 89 89 NE 23 37 29.67 1005 10 16 0.14 3.56
2:25 am 02:25 Cloudy with Nearby Thunderstorms 49 9.4 46 7.8 90 90 ENE 21 33 29.77 1008 5 8 0.08 2.03
2:49 am 02:49 Cloudy with Light Rain 48 9 46 8 94 94 ENE 18 30 29.75 1008 10 16 0.10 2.54
2:53 am 02:53 Cloudy with Light Rain 49 9.4 46 7.8 90 90 ENE 16 26 29.66 1005 10 16 0.11 2.79
3:53 am 03:53 Mostly Cloudy 48 8.9 44 6.7 86 86 ENE 20 31 29.62 1003 10 16 0.01 0.25
4:53 am 04:53 Cloudy 48 8.9 44 6.7 86 86 NE 14 22 29.67 1005 10 16 0.00 0.00
5:53 am 05:53 Cloudy 47 8.3 42 5.6 83 83 ENE 15 24 29.69 1006 10 16 0.00 0.00
6:53 am 06:53 Mostly Cloudy 46 7.8 42 5.6 86 86 NNE 9 15 29.71 1006 10 16 0.00 0.00
7:53 am 07:53 Cloudy 46 7.8 42 5.6 86 86 NNE 10 17 29.75 1007 10 16 0.00 0.00
8:53 am 08:53 Cloudy 47 8.3 41 5 80 80 N 13 20 29.79 1009 10 16 0.00 0.00
9:46 am 09:46 Cloudy 47 8.3 41 5 80 80 N 9 15 29.91 1013 10 16 0.00 0.00
9:53 am 09:53 Cloudy 46 7.8 41 5 83 83 NNW 10 17 29.83 1010 10 16 0.00 0.00
10:15 am 10:15 Cloudy with Light Rain 45 7.2 42 5.6 90 90 N 10 17 29.93 1014 7 11 0.02 0.51
10:53 am 10:53 Cloudy with Light Rain 46 7.8 44 6.7 93 93 NNW 10 17 29.85 1011 7 11 0.07 1.78
11:53 am 11:53 Cloudy 49 9.4 44 6.7 83 83 N 9 15 29.87 1012 10 16 0.02 0.51
12:11 pm 12:11 Cloudy 49 9.4 44 6.7 83 83 N 8 13 29.94 1014 10 16 0.00 0.03
12:44 pm 12:44 Cloudy with Light Rain 50 10 44 6.7 80 80 N 10 17 29.93 1014 10 16 0.00 0.03
12:53 pm 12:53 Cloudy with Light Rain 50 10 43 6.1 77 77 N 8 13 29.89 1012 10 16 0.00 0.03
1:10 pm 13:10 Cloudy 50 10 44 6.7 80 80 NNW 8 13 29.93 1014 10 16 0.00 0.03
1:42 pm 13:42 Cloudy with Light Rain 50 10 44 6.7 80 80 N 7 11 29.93 1014 10 16 0.00 0.03
1:53 pm 13:53 Cloudy with Light Rain 50 10 44 6.7 80 80 NNW 7 11 29.90 1012 10 16 0.00 0.03
2:15 pm 14:15 Cloudy with Light Rain 51 10.6 45 7.2 80 80 NNW 6 9 29.94 1014 10 16 0.00 0.03
2:53 pm 14:53 Cloudy with Light Rain 50 10 45 7.2 83 83 N 8 13 29.91 1013 10 16 0.01 0.25
3:09 pm 15:09 Cloudy 52 11.1 46 7.8 80 80 N 7 11 29.93 1014 10 16 0.00 0.03
3:39 pm 15:39 Cloudy 51 10.6 44 6.7 77 77 N 14 22 29.94 1014 10 16 0.00 0.03
3:53 pm 15:53 Cloudy 51 10.6 44 6.7 77 77 N 13 20 29.90 1013 10 16 0.00 0.03
4:53 pm 16:53 Cloudy 54 12.2 43 6.1 67 67 N 16 26 29.89 1012 10 16 0.00 0.00
5:53 pm 17:53 Cloudy 53 11.7 41 5 64 64 NNE 16 26 29.92 1013 10 16 0.00 0.00
6:49 pm 18:49 Partly Cloudy 52 11 39 4 62 62 NNE 17 28 29.96 1015 10 16 0.00 0.00
6:53 pm 18:53 Mostly Sunny 52 11.1 40 4.4 64 64 N 14 22 29.94 1014 10 16 0.00 0.00
7:53 pm 19:53 Sunny 50 10 40 4.4 68 68 N 13 20 29.96 1015 10 16 0.00 0.00
8:53 pm 20:53 Mostly Clear 47 8.3 40 4.4 77 77 N 8 13 29.98 1015 10 16 0.00 0.00
9:53 pm 21:53 Mostly Cloudy 48 8.9 39 3.9 71 71 NNE 13 20 30.01 1016 10 16 0.00 0.00
10:53 pm 22:53 Cloudy 48 8.9 39 3.9 71 71 NNE 9 15 30.04 1017 10 16 0.00 0.00
11:53 pm 23:53 Mostly Cloudy 47 8.3 38 3.3 71 71 NNE 8 13 30.05 1018 10 16 0.00 0.00

Powered by AerisWeather